Tracking 33464 objects as of 13-Mar-2026
HD Live streaming from Space Station
objects crossing your sky now

SL-8 R/B

Track SL-8 R/B now!
10-day predictions


NORAD ID: 28421
Int'l Code: 2004-037C
Perigee: 1,478.2 km
Apogee: 1,511.9 km
Inclination: 82.5 °
Period: 115.7 minutes
Semi major axis: 7866 km
RCS: 5.1924 m2 (large)
Launch date: September 23, 2004
Source: Commonwealth of Independent States (former USSR) (CIS)
Launch site: PLESETSK MISSILE AND SPACE COMPLEX (PKMTR)

Note: This is a ROCKET BODY
Your satellite tracking list
Your tracking list is empty




NASA's NSSDC Master Catalog

Two Line Element Set (TLE):
1 28421U 04037C   26072.33140794 -.00000043  00000-0 -37244-3 0  9991
2 28421  82.4837  35.7788 0021390 158.7532  10.3170 12.44417386975019
Source of the keplerian elements: AFSPC